KUIPER-00442

导读 | 豆包AI

KUIPER-00442(NORAD编号68943)是亚马逊柯伊伯(Kuiper)项目的一颗试验通信卫星,柯伊伯项目旨在构建全球低轨卫星互联网星座,计划部署数千颗卫星提供全域宽带接入服务。该卫星作为项目测试星之一,用于验证星座技术方案与通信性能。它运行在近地轨道,由SpaceX猎鹰9号火箭发射升空,承担关键技术验证任务,为后续大规模星座部署积累在轨运行数据,是亚马逊构建空间互联网基础设施的重要组成部分,推动了全球卫星通信网络建设进程。

基本信息
目录编号:
68943
目录名称:
KUIPER-00442
国际标识:
2026-098AA
轨道中心:
EARTH
卫星名称:
KUIPER-00442
卫星全名:
KUIPER-00442
卫星状态:
在轨 (已飞行31 天)
发射日期:
2026-04-30 UTC
国别 :
美国 (US)
星等 :
--
轨道信息
数据来源 国际轨道数据 AOE轨道数据
星历时间 2026-05-30T17:31:38+0800
1天前
查看轨道信息
2026-05-30T06:00:00+0800
1天前
查看轨道信息
半长轴 6841.089km 6841.135km
偏心率 0.0006954 0.0006705
轨道倾角 51.877° 51.879°
近地点辐角 80.742° 78.190°
升交点赤经 153.530° 155.846°
平近点角 279.435° 147.355°
近地点 458.194km 458.411km
远地点 467.71km 467.585km
周期 93.853分钟 93.854分钟
每日圈数 15.343166 15.343011
详细信息
使用方式:
暂无
2D轨道图
3D轨道图
轨道高度分析图
轨道倾角分析图
轨道综合分析图
查看轨道综合分析图